Change the Weather History Date:

Sunday, May 5, 2013

  Actual Average Record
Temperature  
Mean Temperature 52 °F -  
Max Temperature 62 °F 71 °F 86 °F (1955)
Min Temperature 41 °F 46 °F 35 °F (1966)
Degree Days  
Heating Degree Days 14    
Growing Degree Days 2 (Base 50)    
Moisture  
Dew Point 44 °F    
Average Humidity 88    
Maximum Humidity 100    
Minimum Humidity 55    
Precipitation  
Precipitation 0.00 in - - ()
Sea Level Pressure  
Sea Level Pressure 30.25 in    
Wind  
Wind Speed 5 mph (ENE)    
Max Wind Speed 14 mph    
Max Gust Speed 25 mph    
Visibility 10 miles    
Events      
Averages and records for this station are not official NWS values.
T = Trace of Precipitation, MM = Missing Value Source: NWS Daily Summary

Daily Weather History Graph

Daily Weather History Graph

Search for Another Location

Airport or City:

Trip Planner

Search our weather history database for the weather conditions in past years. The results will help you decide how hot, cold, wet, or windy it might be!

Date:

Astronomy

May. 05, 2013 Rise Set
Actual Time 6:01 AM EDT 8:00 PM EDT
Civil Twilight 5:32 AM EDT 8:29 PM EDT
Nautical Twilight 4:57 AM EDT 9:05 PM EDT
Astronomical Twilight 4:19 AM EDT 9:43 PM EDT
Moon 3:28 AM EDT (5/5) 4:00 PM EDT (5/5)
Length of Visible Light 14h 57m
Length of Day
13h 58m
Waning Crescent, 18% of the Moon is Illuminated
May 5
Waning Crescent
May 9
New
May 18
First Quarter
May 25
Full
May 31
Last Quarter

Hourly Weather History & Observations

Time (EDT) Temp. Windchill Dew Point Humidity Pressure Visibility Wind Dir Wind Speed Gust Speed Precip Events Conditions
12:16 AM 44.1 °F 42.5 °F 42.3 °F 93% 30.28 in 10.0 mi East 3.5 mph - N/A   Clear
12:35 AM 43.7 °F 40.3 °F 42.4 °F 95% 30.28 in 10.0 mi East 5.8 mph - N/A   Clear
12:56 AM 43.9 °F - 42.4 °F 95% 30.28 in 10.0 mi Calm Calm - N/A   Clear
1:16 AM 43.3 °F - 42.3 °F 96% 30.28 in 10.0 mi Calm Calm - N/A   Clear
1:36 AM 43.5 °F 41.9 °F 42.6 °F 97% 30.27 in 10.0 mi NE 3.5 mph - N/A   Scattered Clouds
1:56 AM 42.8 °F 41.1 °F 42.1 °F 97% 30.27 in 10.0 mi NE 3.5 mph - N/A   Scattered Clouds
2:16 AM 41.7 °F 39.8 °F 41.7 °F 100% 30.27 in 10.0 mi NE 3.5 mph - N/A   Clear
2:36 AM 41.5 °F 39.6 °F 41.5 °F 100% 30.26 in 10.0 mi NE 3.5 mph - N/A   Clear
2:56 AM 41.4 °F 39.4 °F 41.4 °F 100% 30.26 in 10.0 mi NE 3.5 mph - N/A   Scattered Clouds
3:16 AM 41.5 °F 39.6 °F 41.5 °F 100% 30.25 in 10.0 mi NE 3.5 mph - N/A   Scattered Clouds
3:36 AM 41.5 °F - 41.5 °F 100% 30.25 in 10.0 mi Calm Calm - N/A   Clear
3:56 AM 41.2 °F 39.2 °F 41.2 °F 100% 30.25 in 10.0 mi ENE 3.5 mph - N/A   Scattered Clouds
4:16 AM 41.5 °F 38.6 °F 41.5 °F 100% 30.25 in 10.0 mi NE 4.6 mph - N/A   Scattered Clouds
4:36 AM 41.9 °F 40.0 °F 41.9 °F 100% 30.24 in 10.0 mi NE 3.5 mph - N/A   Scattered Clouds
4:56 AM 41.2 °F 39.2 °F 41.2 °F 100% 30.25 in 10.0 mi NE 3.5 mph - N/A   Clear
5:16 AM 41.5 °F 39.6 °F 41.5 °F 100% 30.25 in 10.0 mi NNE 3.5 mph - N/A   Scattered Clouds
5:36 AM 42.8 °F 41.1 °F 42.8 °F 100% 30.25 in 10.0 mi NNE 3.5 mph - N/A   Scattered Clouds
5:53 AM 42.8 °F 40.1 °F 42.8 °F 100% 30.25 in 10.0 mi NNE 4.6 mph - N/A   Overcast
5:56 AM 43.0 °F 41.3 °F 43.0 °F 100% 30.25 in 10.0 mi NE 3.5 mph - N/A   Scattered Clouds
6:16 AM 43.3 °F 40.7 °F 43.3 °F 100% 30.25 in 7.0 mi NE 4.6 mph - N/A   Mostly Cloudy
6:36 AM 43.9 °F 39.9 °F 43.7 °F 99% 30.25 in 10.0 mi NE 6.9 mph - N/A   Mostly Cloudy
6:48 AM 44.6 °F 40.2 °F 42.8 °F 93% 30.26 in 10.0 mi NE 8.1 mph - N/A   Mostly Cloudy
6:56 AM 45.0 °F 41.8 °F 43.2 °F 93% 30.26 in 10.0 mi ENE 5.8 mph - N/A   Mostly Cloudy
7:16 AM 45.5 °F 41.8 °F 43.2 °F 92% 30.26 in 10.0 mi ENE 6.9 mph - N/A   Mostly Cloudy
7:36 AM 46.4 °F 41.9 °F 43.2 °F 88% 30.27 in 10.0 mi ENE 9.2 mph - N/A   Mostly Cloudy
7:42 AM 46.6 °F - 43.3 °F 88% 30.27 in 10.0 mi ENE 8.1 mph - N/A   Mostly Cloudy
7:50 AM 46.4 °F 41.9 °F 42.8 °F 87% 30.27 in 10.0 mi ENE 9.2 mph - N/A   Overcast
8:47 AM 48.2 °F - 42.8 °F 82% 30.28 in 10.0 mi East 6.9 mph - N/A   Overcast
9:53 AM 50.0 °F - 41.0 °F 71% 30.28 in 10.0 mi East 10.4 mph 18.4 mph N/A   Overcast
10:52 AM 55.4 °F - 42.8 °F 63% 30.28 in 10.0 mi East 12.7 mph 17.3 mph N/A   Overcast
11:46 AM 55.4 °F - 42.8 °F 63% 30.28 in 10.0 mi ENE 11.5 mph 17.3 mph N/A   Overcast
12:48 PM 59.0 °F - 44.6 °F 59% 30.26 in 10.0 mi East 11.5 mph 25.3 mph N/A   Mostly Cloudy
1:50 PM 59.0 °F - 46.4 °F 63% 30.25 in 10.0 mi East 10.4 mph - N/A   Mostly Cloudy
2:50 PM 62.6 °F - 46.4 °F 55% 30.24 in 10.0 mi East 9.2 mph - N/A   Mostly Cloudy
3:50 PM 62.6 °F - 48.2 °F 59% 30.23 in 10.0 mi East 11.5 mph - N/A   Scattered Clouds
4:50 PM 62.6 °F - 48.2 °F 59% 30.21 in 10.0 mi East 9.2 mph - N/A   Mostly Cloudy
5:50 PM 60.8 °F - 48.2 °F 63% 30.21 in 10.0 mi East 13.8 mph 18.4 mph N/A   Scattered Clouds
6:53 PM 59.0 °F - 48.2 °F 67% 30.22 in 10.0 mi East 9.2 mph - N/A   Partly Cloudy
7:53 PM 55.4 °F - 48.2 °F 77% 30.23 in 10.0 mi ESE 5.8 mph - N/A   Scattered Clouds
8:55 PM 50.0 °F - 46.4 °F 87% 30.24 in 10.0 mi Calm Calm - N/A   Clear
10:58 PM 47.3 °F - 45.9 °F 95% 30.23 in 10.0 mi East 5.8 mph - N/A   Clear
11:18 PM 46.9 °F - 45.9 °F 96% 30.23 in 10.0 mi East 4.6 mph - N/A   Clear
11:38 PM 46.8 °F - 46.0 °F 97% 30.23 in 10.0 mi ESE 5.8 mph - N/A   Clear
11:58 PM 46.6 °F - 46.4 °F 99% 30.23 in 10.0 mi ESE 4.6 mph - N/A   Clear